Location: *
(51.5000°N, 0.1100°W)
Time: 16:25:24
(UTC+00:00)

SL-16 R/B - Pass Details

Date: 25 May 2024
Orbit: 985 x 1007 km, 99.7° (Epoch: 16 June)

Event Time Altitude Azimuth Distance (km) Brightness Sun altitude
Rises 02:50:28 0° 173° (S) 3,722 5.1 -8.2°
Reaches altitude 10° 02:52:58 10° 177° (S) 2,777 4.5 -7.9°
Maximum altitude 02:59:09 61° 257° (WSW) 1,138 2.7 -7.3°
Drops below altitude 10° 03:05:22 10° 338° (NNW) 2,793 5.2 -6.6°
Sets 03:07:55 0° 342° (NNW) 3,746 6.0 -6.4°
